Voltar ao catálogo

STARLINK-4212

AtivoComunicaçõesVLEO
NORAD 52846·PAYLOAD·🇺🇸 United States

Lançado Jun 17, 2022 de Cape Canaveral Space Force Station

Loading…

Próximas Passagens (próximas 24 horas)

TLE

AtualizadoSource: CelesTrak SupGP

Época: Sep 15, 2026, 02:49 UTC

1 52846C 22062S   26258.11784722 -.00029591  00000+0 -95156-3 0  2586
2 52846  53.1585 254.1207 0001396  86.2999 287.0090 15.31717128    10

Acompanhe STARLINK-4212 em tempo real com AllMySat

Download on the App Store